Regional Weather Roundup
Issued by NWS Jackson, KY

Home | Current Version | Previous Version | Graphics & Text | Print | Product List | Glossary On
Versions: 1 2 3 4 5 6 7 8 9 10 11 12 13 14 15 16 17 18 19 20 21 22 23 24 25 26 27 28 29 30 31 32 33 34 35 36 37 38 39 40 41 42 43 44 45 46 47 48 49 50
626
ASUS43 KJKL 100510
RWRJKL

EAST KENTUCKY HOURLY WEATHER ROUNDUP
NATIONAL WEATHER SERVICE JACKSON KY
1200 AM EST WED FEB 10 2016

NOTE: "FAIR" INDICATES FEW OR NO CLOUDS BELOW 12,000 FEET WITH
NO SIGNIFICANT WEATHER AND/OR OBSTRUCTIONS TO VISIBILITY.

* THESE REPORTS ARE NOT UNDER NWS QUALITY CONTROL AND MAY NOT
  REPORT WEATHER SUCH AS PRECIPITATION AND FOG.

KYZ079-080-083-085-087-088-110-112-115-119-120-100600
...EASTERN KENTUCKY...

CITY           SKY/WX    TMP DP  RH WIND       PRES   REMARKS
JACKSON        CLOUDY    20  12  71 W9G20     29.90S WCI   9
LONDON         CLOUDY    19  12  74 W8        29.96S WCI   9
SOMERSET*      CLOUDY    18  12  79 W12G17    30.02S WCI   5
MONTICELLO*    FLURRIES  19  13  77 W13       30.03S WCI   6
WILLIAMSBURG*  CLOUDY    19  18  93 CALM      29.98S
MIDDLESBORO*   CLOUDY    21  12  66 NW7       29.97S WCI  13
HARLAN APT*    CLOUDY    21  14  73 SW9G16    29.92R WCI  11
HAZARD APT*    FLURRIES N/A N/A N/A W9G17     29.92S
BLACK MTN*       N/A     10  10 100 CALM        N/A
BIG SANDY*     LGT SNOW  21  17  84 W8        29.90S WCI  12
MOREHEAD APT*  CLOUDY    21  12  68 VRB7G17   29.94S WCI  13
$$

KYZ035-036-041-042-044-050-067-078-099-100600
...CENTRAL KENTUCKY...

CITY           SKY/WX    TMP DP  RH WIND       PRES   REMARKS
MT STERLING*   LGT SNOW  19  18  93 W8        29.95S WCI   9
DANVILLE*      CLOUDY    19  14  79 W10       29.99S WCI   8
RICHMOND*      CLOUDY    18  14  86 W15       29.96F WCI   3
LEXINGTON      CLOUDY    18  11  74 W10       29.96S WCI   6
$$

KYZ091>093-OHZ055-061-077-WVZ005-015-034-035-042-100600
...SOUTHERN OHIO/WEST VIRGINIA...

CITY           SKY/WX    TMP DP  RH WIND       PRES   REMARKS
COVINGTON      FLURRIES  16  10  77 W8        29.93S WCI   5
COLUMBUS       FLURRIES  21  14  74 W16       29.82S WCI   7
DAYTON         CLOUDY    17  11  77 W17       29.87R WCI   1
WILMINGTON     FLURRIES  18  12  77 W13       29.86S WCI   5
HUNTINGTON     LGT SNOW  22  17  81 SW8       29.89S WCI  12
CHARLESTON     LGT SNOW  24  16  71 W9        29.86S WCI  14
PINEVILLE*     LGT SNOW  21  15  76 MISG      29.87S
BECKLEY        LGT SNOW  18  12  77 W10       29.75S WCI   6
$$

VAZ002-007-008-TNZ017-027-036-066-071-100600
...SOUTHWEST VIRGINIA/EAST TENNESSEE...

CITY           SKY/WX    TMP DP  RH WIND       PRES   REMARKS
BRISTOL        FLURRIES  22  15  75 SW8       29.90S WCI  12
KNOXVILLE      FLURRIES  22  11  62 W14       30.00R WCI   9
OAK RIDGE      CLOUDY    24   9  52 W8        30.01S WCI  15
CROSSVILLE     LGT SNOW  18  10  71 W13G18    29.96R WCI   5
NASHVILLE      CLOUDY    22  12  65 NW8       30.10F WCI  12
$$

...KEY TO REMARKS...
VSB - VISIBILITY IN MILES
WCI - WIND CHILL INDEX
HX  - HEAT INDEX

$$




USA.gov is the U.S. government's official web portal to all federal, state and local government web resources and services.